TimeCDT,TemperatureF,Dew PointF,Humidity,Sea Level PressureIn,VisibilityMPH,Wind Direction,Wind SpeedMPH,Gust SpeedMPH,PrecipitationIn,Events,Conditions,WindDirDegrees,DateUTC
12:15 AM,68.0,60.8,78,30.05,10.0,SSE,8.1,-,N/A,,Mostly Cloudy,150,2013-09-29 05:15:00
12:35 AM,68.0,60.8,78,30.04,10.0,SSE,8.1,-,N/A,,Mostly Cloudy,150,2013-09-29 05:35:00
12:55 AM,68.0,60.8,78,30.03,10.0,SSE,9.2,-,N/A,,Scattered Clouds,150,2013-09-29 05:55:00
1:15 AM,68.0,60.8,78,30.03,10.0,SSE,8.1,-,N/A,,Clear,160,2013-09-29 06:15:00
1:35 AM,68.0,60.8,78,30.03,10.0,SSE,9.2,-,N/A,,Clear,150,2013-09-29 06:35:00
1:55 AM,68.0,60.8,78,30.03,10.0,SSE,9.2,-,N/A,,Clear,160,2013-09-29 06:55:00
2:15 AM,68.0,60.8,78,30.02,10.0,SSE,9.2,-,N/A,,Clear,150,2013-09-29 07:15:00
2:35 AM,68.0,60.8,78,30.02,10.0,SSE,6.9,-,N/A,,Clear,160,2013-09-29 07:35:00
2:55 AM,68.0,60.8,78,30.03,10.0,South,5.8,-,N/A,,Scattered Clouds,190,2013-09-29 07:55:00
3:15 AM,68.0,60.8,78,30.03,10.0,South,4.6,-,N/A,,Scattered Clouds,170,2013-09-29 08:15:00
3:35 AM,68.0,60.8,78,30.02,10.0,SSE,6.9,-,N/A,,Mostly Cloudy,160,2013-09-29 08:35:00
3:55 AM,68.0,60.8,78,30.02,10.0,SSE,4.6,-,N/A,,Mostly Cloudy,150,2013-09-29 08:55:00
4:15 AM,68.0,60.8,78,30.01,10.0,SSE,3.5,-,N/A,,Mostly Cloudy,150,2013-09-29 09:15:00
4:35 AM,68.0,60.8,78,30.02,10.0,SSE,4.6,-,N/A,,Overcast,150,2013-09-29 09:35:00
4:55 AM,68.0,60.8,78,30.02,10.0,SSE,3.5,-,N/A,,Overcast,160,2013-09-29 09:55:00
5:15 AM,68.0,60.8,78,30.03,10.0,Calm,Calm,-,N/A,Rain,Light Rain,0,2013-09-29 10:15:00
5:35 AM,68.0,60.8,78,30.04,10.0,Calm,Calm,-,N/A,,Drizzle,0,2013-09-29 10:35:00
5:55 AM,66.2,62.6,88,30.04,10.0,Calm,Calm,-,N/A,Rain,Light Rain,0,2013-09-29 10:55:00
6:15 AM,68.0,62.6,83,30.06,10.0,Calm,Calm,-,N/A,Rain,Light Rain,0,2013-09-29 11:15:00
6:35 AM,68.0,62.6,83,30.05,10.0,Calm,Calm,-,N/A,,Light Drizzle,0,2013-09-29 11:35:00
6:55 AM,66.2,62.6,88,30.05,10.0,SE,3.5,-,N/A,,Mostly Cloudy,130,2013-09-29 11:55:00
7:15 AM,66.2,60.8,83,30.05,10.0,SE,6.9,-,N/A,,Overcast,140,2013-09-29 12:15:00
7:35 AM,66.2,60.8,83,30.04,10.0,SE,6.9,-,N/A,,Overcast,140,2013-09-29 12:35:00
7:55 AM,68.0,60.8,78,30.04,10.0,SSE,8.1,-,N/A,,Overcast,160,2013-09-29 12:55:00
8:15 AM,66.2,60.8,83,30.04,10.0,SSE,8.1,-,N/A,,Overcast,160,2013-09-29 13:15:00
8:35 AM,66.2,60.8,83,30.04,10.0,SSE,6.9,-,N/A,,Overcast,160,2013-09-29 13:35:00
8:55 AM,66.2,60.8,83,30.04,10.0,SSE,5.8,-,N/A,,Overcast,150,2013-09-29 13:55:00
9:15 AM,68.0,60.8,78,30.04,10.0,SSE,5.8,-,N/A,,Overcast,160,2013-09-29 14:15:00
9:35 AM,68.0,60.8,78,30.04,10.0,SSE,5.8,-,N/A,,Overcast,160,2013-09-29 14:35:00
9:55 AM,68.0,60.8,78,30.04,10.0,SSE,5.8,-,N/A,,Overcast,150,2013-09-29 14:55:00
10:15 AM,69.8,60.8,73,30.04,10.0,SSE,8.1,-,N/A,,Overcast,160,2013-09-29 15:15:00
10:35 AM,69.8,62.6,78,30.03,10.0,SSE,9.2,-,N/A,,Overcast,150,2013-09-29 15:35:00
10:55 AM,69.8,62.6,78,30.03,10.0,South,10.4,-,N/A,,Overcast,170,2013-09-29 15:55:00
11:15 AM,71.6,62.6,73,30.03,10.0,South,10.4,-,N/A,,Overcast,170,2013-09-29 16:15:00
11:35 AM,71.6,62.6,73,30.03,10.0,South,9.2,-,N/A,,Overcast,170,2013-09-29 16:35:00
11:55 AM,71.6,62.6,73,30.03,10.0,South,12.7,-,N/A,,Overcast,190,2013-09-29 16:55:00
12:15 PM,71.6,62.6,73,30.03,10.0,South,12.7,17.3,N/A,,Overcast,170,2013-09-29 17:15:00
12:35 PM,71.6,62.6,73,30.03,10.0,South,11.5,-,N/A,,Overcast,170,2013-09-29 17:35:00
12:55 PM,69.8,62.6,78,30.02,10.0,South,8.1,-,N/A,,Overcast,180,2013-09-29 17:55:00
1:15 PM,69.8,64.4,83,30.01,10.0,South,10.4,-,N/A,,Overcast,190,2013-09-29 18:15:00
1:35 PM,69.8,64.4,83,30.00,7.0,South,8.1,-,N/A,Rain,Light Rain,180,2013-09-29 18:35:00
1:55 PM,69.8,66.2,88,29.99,5.0,South,9.2,-,N/A,,Light Drizzle,170,2013-09-29 18:55:00
2:15 PM,68.0,66.2,94,29.98,7.0,South,6.9,-,N/A,,Overcast,170,2013-09-29 19:15:00
2:35 PM,69.8,64.4,83,29.98,10.0,SSE,10.4,-,N/A,,Overcast,160,2013-09-29 19:35:00
2:55 PM,69.8,64.4,83,29.98,10.0,South,9.2,-,N/A,,Overcast,170,2013-09-29 19:55:00
3:15 PM,68.0,64.4,88,29.97,10.0,South,8.1,-,N/A,,Overcast,170,2013-09-29 20:15:00
3:35 PM,68.0,64.4,88,29.97,5.0,SSE,8.1,-,N/A,,Overcast,160,2013-09-29 20:35:00
3:55 PM,68.0,64.4,88,29.97,4.0,SSE,4.6,-,N/A,,Overcast,160,2013-09-29 20:55:00
4:15 PM,68.0,66.2,94,29.97,4.0,SSE,6.9,-,N/A,,Overcast,160,2013-09-29 21:15:00
4:35 PM,68.0,66.2,94,29.97,4.0,SSE,6.9,-,N/A,,Overcast,150,2013-09-29 21:35:00
4:55 PM,68.0,66.2,94,29.96,10.0,SSE,9.2,-,N/A,,Overcast,150,2013-09-29 21:55:00
5:15 PM,68.0,64.4,88,29.97,5.0,SE,6.9,-,N/A,,Overcast,140,2013-09-29 22:15:00
5:35 PM,68.0,64.4,88,29.97,3.0,SE,6.9,-,N/A,,Overcast,140,2013-09-29 22:35:00
5:55 PM,68.0,66.2,94,29.97,1.2,SE,4.6,-,N/A,,Overcast,140,2013-09-29 22:55:00
6:15 PM,68.0,66.2,94,29.97,2.0,SE,4.6,-,N/A,,Overcast,130,2013-09-29 23:15:00
6:35 PM,68.0,66.2,94,29.97,7.0,SE,5.8,-,N/A,,Overcast,130,2013-09-29 23:35:00
6:55 PM,68.0,66.2,94,29.97,7.0,SE,3.5,-,N/A,,Overcast,130,2013-09-29 23:55:00
7:15 PM,68.0,66.2,94,29.97,4.0,East,3.5,-,N/A,,Overcast,100,2013-09-30 00:15:00
7:35 PM,68.0,66.2,94,29.98,2.5,ESE,3.5,-,N/A,,Drizzle,110,2013-09-30 00:35:00
7:55 PM,68.0,66.2,94,29.98,2.5,ESE,4.6,-,0.01,,Light Drizzle,120,2013-09-30 00:55:00
8:15 PM,68.0,66.2,94,29.98,2.0,ESE,3.5,-,N/A,,Light Drizzle,110,2013-09-30 01:15:00
8:35 PM,68.0,66.2,94,29.98,2.5,ESE,4.6,-,N/A,,Overcast,110,2013-09-30 01:35:00
8:55 PM,68.0,66.2,94,29.98,2.5,East,3.5,-,N/A,,Overcast,100,2013-09-30 01:55:00
9:15 PM,68.0,66.2,94,29.98,2.5,East,3.5,-,N/A,,Overcast,100,2013-09-30 02:15:00
9:35 PM,68.0,66.2,94,29.98,2.0,East,4.6,-,0.01,,Drizzle,100,2013-09-30 02:35:00
9:55 PM,68.0,66.2,94,29.98,2.5,East,3.5,-,0.01,,Drizzle,90,2013-09-30 02:55:00
10:15 PM,68.0,66.2,94,29.97,3.0,East,4.6,-,0.01,,Overcast,90,2013-09-30 03:15:00
10:35 PM,68.0,64.4,88,29.97,3.0,East,4.6,-,0.01,Rain,Rain,100,2013-09-30 03:35:00
10:55 PM,68.0,64.4,88,29.97,3.0,East,4.6,-,0.01,,Overcast,100,2013-09-30 03:55:00
11:15 PM,68.0,66.2,94,29.97,2.5,East,4.6,-,N/A,,Overcast,90,2013-09-30 04:15:00
11:35 PM,68.0,66.2,94,29.97,4.0,SE,6.9,-,0.01,,Light Drizzle,130,2013-09-30 04:35:00
11:55 PM,68.0,66.2,94,29.96,3.0,SE,9.2,-,0.01,,Overcast,130,2013-09-30 04:55:00